[[{"header":{"parameterUnit":"m.s-1","parameterCategory":1,"la1":30.2991,"la2":30.254,"lo1":-89.0895,"lo2":-89.0444,"dy":0.0017,"dx":0.0017,"nx":28,"ny":28,"refTime":"2024-04-16T21:00:00:Z","depth":0,"parameterNumber":2,"parameterNumberName":"U-component_of_WINDS"},"data":[0,0,0,0,0,0,0,0,0,0,0,0,0,0,0,0,0,0,0,0,0,0,0,0,0,0,0,0,0,0,0,0,0,0,0,0,0,0,0,0,0,0,0,0,0,0,0,0,0,0,0,0,0,0,0,0,0,0,-4.1916,-4.1918,0,-4.2057,-4.2058,-4.206,-4.207,-4.2069,-4.2067,-4.2066,-4.2209,-4.2215,-4.222,0,0,0,0,0,0,0,0,0,0,0,0,0,-4.1658,-4.1662,-4.1916,-4.1918,-4.192,-4.2057,-4.2058,-4.206,-4.207,-4.2069,-4.2067,-4.2065,-4.2208,-4.2214,-4.222,0,0,0,0,0,0,0,0,0,0,0,0,0,-4.1781,-4.1664,-4.1916,-4.1941,-4.1945,-4.2056,-4.2059,-4.2061,-4.2071,-4.2069,-4.2066,-4.2064,-4.2206,-4.2213,-4.2221,-4.2317,0,0,-4.2245,-4.2249,0,0,0,0,0,0,0,0,-4.1774,-4.1791,-4.1936,-4.194,-4.1944,-4.2044,-4.202,-4.2147,-4.2071,-4.2023,-4.2066,-4.2063,-4.2156,-4.2168,-4.2199,-4.2323,-4.233,-4.2246,-4.2251,-4.2254,-4.2257,0,0,0,0,0,0,0,-4.1766,-4.1785,-4.1972,-4.1938,-4.1943,-4.1946,-4.1961,-4.2044,-4.2101,-4.2027,-4.2028,-4.2045,-4.2158,-4.2192,-4.2203,-4.2332,-4.2246,-4.2253,-4.2258,-4.2261,-4.2542,-4.2545,0,0,0,0,0,0,-4.1752,-4.1777,-4.1967,-4.1976,-4.1852,-4.1953,-4.1969,-4.2014,-4.21,-4.2111,-4.2046,-4.2045,-4.2179,-4.2194,-4.2208,-4.2325,-4.2254,-4.2262,-4.2266,-4.2539,-4.2543,-4.2546,0,0,0,0,0,0,-4.1747,-4.1769,-4.1962,-4.1877,-4.1902,-4.1959,-4.201,-4.2018,-4.2052,-4.2115,-4.2125,-4.207,-4.2178,-4.2197,-4.229,-4.233,-4.2265,-4.2272,-4.2536,-4.254,-4.2544,-4.256,0,0,0,0,0,0,-4.1739,-4.1767,-4.1803,-4.1878,-4.1906,-4.204,-4.2012,-4.2022,-4.2065,-4.2064,-4.214,-4.215,-4.2178,-4.2278,-4.2298,-4.234,-4.2279,-4.2533,-4.2538,-4.2543,-4.2556,-4.2564,-4.2571,0,0,0,0,0,-4.173,-4.1802,-4.1805,-4.1828,-4.1953,-4.2043,-4.2059,-4.2089,-4.2069,-4.2106,-4.2147,-4.2148,-4.2323,-4.2287,-4.231,-4.2355,-4.253,-4.2536,-4.2542,-4.2552,-4.2562,-4.2571,0,0,0,0,0,0,-4.173,-4.1812,-4.1816,-4.1915,-4.1972,-4.2044,-4.2092,-4.2099,-4.2162,-4.2159,-4.2194,-4.2211,-4.2302,-4.2339,-4.2297,-4.2452,-4.2425,-4.2435,-4.2425,-4.2434,-4.2442,-4.243,-4.2285,0,0,0,0,0,-4.1742,-4.1807,-4.1876,-4.1956,-4.1985,-4.2034,-4.2074,-4.2092,-4.2153,-4.2177,-4.2224,-4.2283,-4.2351,-4.2395,-4.2462,-4.2563,-4.2579,-4.2605,-4.2612,-4.2618,-4.2626,-4.2682,-4.2694,-4.2566,-4.2566,-4.2565,0,0,-4.1766,-4.1819,-4.1858,-4.1958,-4.2004,-4.2071,-4.2054,-4.2126,-4.2176,-4.2188,-4.2278,-4.2315,-4.2383,-4.248,-4.2525,-4.2513,-4.2666,-4.2626,-4.263,-4.2635,-4.2689,-4.2701,-4.2712,-4.257,-4.2569,-4.2568,0,0,-4.1844,-4.1891,-4.1963,-4.201,-4.2081,-4.2113,-4.2131,-4.2203,-4.2228,-4.232,-4.233,-4.2391,-4.2508,-4.2556,-4.2596,-4.2695,-4.2699,-4.2717,-4.2754,-4.2808,-4.2818,-4.2827,-4.2861,-4.2873,-4.2725,-4.2725,-4.2725,0,-4.1865,-4.1966,-4.1999,-4.2071,-4.2114,-4.213,-4.2203,-4.2247,-4.2336,-4.2366,-4.2351,-4.2499,-4.2546,-4.2654,-4.2679,-4.2711,-4.2732,-4.2706,-4.2814,-4.2824,-4.2832,-4.2865,-4.2878,-4.2727,-4.2726,-4.2726,-4.2726,0,-4.1988,-4.2059,-4.2109,-4.2194,-4.2244,-4.2316,-4.236,-4.2406,-4.2422,-4.2456,-4.2549,-4.2607,-4.2685,-4.2713,-4.2728,-4.2824,-4.2814,-4.2807,-4.2779,-4.2846,-4.2877,-4.289,-4.2729,-4.2728,-4.2728,-4.2727,0,0,-4.2067,-4.2171,-4.2189,-4.2228,-4.2308,-4.2363,-4.2437,-4.2514,-4.2553,-4.2615,-4.2677,-4.2777,-4.2771,-4.2816,-4.2838,-4.2886,-4.296,-4.2873,-4.2875,-4.2885,-4.3068,-4.307,-4.3085,-4.2964,-4.2967,-4.2969,-4.3061,0,-4.2152,-4.2283,-4.2315,-4.2427,-4.2492,-4.2509,-4.2574,-4.263,-4.2665,-4.2726,-4.2765,-4.2835,-4.2822,-4.285,-4.2898,-4.294,-4.2996,-4.2935,-4.3021,-4.3024,-4.3,-4.3101,-4.3104,-4.3189,-4.3074,-4.3076,-4.3078,0,-4.2268,-4.2333,-4.245,-4.2523,-4.2552,-4.2609,-4.2682,-4.2741,-4.2806,-4.2828,-4.288,-4.2898,-4.2976,-4.2947,-4.3054,-4.3011,-4.305,-4.3076,-4.308,-4.3087,-4.3052,-4.3109,-4.3217,-4.3228,-4.3098,-4.3096,-4.3095,0,-4.2311,-4.2428,-4.2513,-4.2547,-4.2634,-4.2674,-4.2712,-4.2775,-4.282,-4.2885,-4.2914,-4.2988,-4.3027,-4.3084,-4.3121,-4.3097,-4.3226,-4.32,-4.3245,-4.3244,-4.3269,-4.3266,-4.3382,-4.3298,-4.3298,-4.3298,-4.3297,0,-4.2402,-4.2473,-4.2534,-4.2586,-4.2667,-4.2705,-4.2784,-4.2823,-4.2879,-4.2939,-4.296,-4.3016,-4.3063,-4.3127,-4.3157,-4.3241,-4.3259,-4.3279,-4.3286,-4.3276,-4.3273,-4.3299,-4.3293,-4.3301,-4.33,-4.33,-4.3299,0,-4.2462,-4.2506,-4.26,-4.2676,-4.2697,-4.2752,-4.2817,-4.2869,-4.2906,-4.2982,-4.3002,-4.306,-4.3135,-4.3179,-4.3275,-4.3295,-4.3388,-4.3393,-4.3365,-4.3368,-4.341,-4.3405,-4.3544,-4.3564,-4.3469,-4.347,-4.3471,0,-4.2515,-4.257,-4.2652,-4.2694,-4.2733,-4.28,-4.2846,-4.2887,-4.2934,-4.3013,-4.3055,-4.3133,-4.3196,-4.3316,-4.3366,-4.344,-4.3445,-4.349,-4.3456,-4.3445,-4.3444,-4.3439,-4.3444,-4.3494,-4.3495,-4.3496,-4.3496,0,-4.2604,-4.2624,-4.2688,-4.2762,-4.2816,-4.2876,-4.2935,-4.2968,-4.3019,-4.3071,-4.3149,-4.3198,-4.3296,-4.3372,-4.345,-4.349,-4.3502,-4.3507,-4.3521,-4.351,-4.349,-4.35,-4.3378,-4.3502,-4.3502,-4.3501,-4.3501,-4.3501,-4.2661,-4.2711,-4.2776,-4.2848,-4.2897,-4.2953,-4.3005,-4.3049,-4.3114,-4.3196,-4.3218,-4.3299,-4.3365,-4.347,-4.3513,-4.3577,-4.357,-4.359,-4.3595,-4.3599,-4.3599,-4.3483,-4.3592,-4.3592,-4.3592,-4.3592,-4.3592,0,-4.2749,-4.2793,-4.2859,-4.2941,-4.2998,-4.3006,-4.3072,-4.3119,-4.3191,-4.3251,-4.3313,-4.3403,-4.3477,-4.3535,-4.3611,-4.3652,-4.3659,-4.367,-4.3666,-4.3675,-4.3603,-4.3582,-4.3663,-4.3663,-4.3663,-4.3663,-4.3663,-4.3663,-4.2802,-4.2886,-4.2914,-4.3023,-4.3067,-4.3146,-4.3183,-4.3235,-4.3283,-4.3382,-4.3444,-4.3481,-4.354,-4.3622,-4.369,-4.3706,-4.3732,-4.3742,-4.3757,-4.3688,-4.368,-4.3673,-4.3653,-4.3748,-4.3748,-4.3824,-4.3825,-4.3825]},{"header":{"parameterUnit":"m.s-1","parameterCategory":1,"la1":30.2991,"la2":30.254,"lo1":-89.0895,"lo2":-89.0444,"dy":0.0017,"dx":0.0017,"nx":28,"ny":28,"refTime":"2024-04-16T21:00:00:Z","depth":0,"parameterNumber":3,"parameterNumberName":"V-component_of_WINDS"},"data":[0,0,0,0,0,0,0,0,0,0,0,0,0,0,0,0,0,0,0,0,0,0,0,0,0,0,0,0,0,0,0,0,0,0,0,0,0,0,0,0,0,0,0,0,0,0,0,0,0,0,0,0,0,0,0,0,0,0,3.4909,3.491,0,3.4955,3.4955,3.4956,3.4949,3.4949,3.4948,3.4947,3.4991,3.4993,3.4995,0,0,0,0,0,0,0,0,0,0,0,0,0,3.4816,3.4818,3.4909,3.491,3.491,3.4955,3.4955,3.4956,3.495,3.4949,3.4948,3.4947,3.4991,3.4993,3.4995,0,0,0,0,0,0,0,0,0,0,0,0,0,3.4858,3.4818,3.4909,3.4913,3.4913,3.4954,3.4955,3.4956,3.495,3.4949,3.4948,3.4947,3.499,3.4993,3.4995,3.5035,0,0,3.5004,3.5005,0,0,0,0,0,0,0,0,3.4856,3.4862,3.4912,3.4912,3.4913,3.4945,3.4939,3.4982,3.495,3.4936,3.4947,3.4946,3.4977,3.4981,3.4991,3.5037,3.5039,3.5004,3.5006,3.5007,3.5008,0,0,0,0,0,0,0,3.4853,3.486,3.4927,3.4912,3.4913,3.4912,3.4916,3.4947,3.4962,3.4937,3.4937,3.4942,3.4977,3.4989,3.4992,3.504,3.5004,3.5007,3.5008,3.5009,3.5122,3.5124,0,0,0,0,0,0,3.4849,3.4857,3.4926,3.4928,3.4881,3.4914,3.492,3.4936,3.4962,3.4964,3.4943,3.4942,3.4985,3.4989,3.4994,3.5043,3.5007,3.501,3.5011,3.5121,3.5123,3.5124,0,0,0,0,0,0,3.4848,3.4856,3.4924,3.4893,3.4902,3.4917,3.4936,3.4938,3.4949,3.4966,3.4969,3.4953,3.4984,3.499,3.5026,3.5045,3.5011,3.5014,3.5119,3.5121,3.5123,3.5141,0,0,0,0,0,0,3.4845,3.4855,3.487,3.4893,3.4903,3.4955,3.4937,3.4939,3.4955,3.4953,3.4976,3.4978,3.4983,3.5021,3.5028,3.5048,3.5016,3.5118,3.512,3.5123,3.5139,3.5144,3.5148,0,0,0,0,0,3.4842,3.4872,3.4871,3.4879,3.4923,3.4956,3.4962,3.4967,3.4956,3.4972,3.4983,3.4978,3.5042,3.5025,3.5033,3.5053,3.5117,3.512,3.5122,3.5137,3.5143,3.5148,0,0,0,0,0,0,3.485,3.4875,3.4874,3.4914,3.4933,3.4955,3.4974,3.4973,3.4995,3.4993,3.4999,3.5004,3.504,3.505,3.5031,3.5094,3.5077,3.5082,3.5086,3.5092,3.5096,3.5092,3.5018,0,0,0,0,0,3.4856,3.4882,3.4903,3.4935,3.4945,3.4959,3.4973,3.4976,3.4996,3.5004,3.5018,3.5036,3.5061,3.5077,3.51,3.5141,3.5146,3.5159,3.5163,3.5167,3.5171,3.5194,3.5201,3.5134,3.5134,3.5134,0,0,3.487,3.4887,3.4902,3.4938,3.4953,3.4979,3.4965,3.4993,3.5012,3.5008,3.5043,3.5054,3.5075,3.5114,3.5132,3.5124,3.5191,3.5171,3.5173,3.5175,3.5198,3.5204,3.521,3.5136,3.5135,3.5135,0,0,3.4908,3.4923,3.4953,3.4969,3.4993,3.5002,3.5009,3.5032,3.504,3.5075,3.5073,3.5096,3.5138,3.5154,3.5167,3.5214,3.5211,3.5222,3.5244,3.5267,3.5272,3.5277,3.5294,3.53,3.5226,3.5226,3.5226,0,3.4921,3.4961,3.4968,3.4997,3.5013,3.5012,3.5042,3.5057,3.5087,3.5098,3.5089,3.5144,3.5158,3.5201,3.5213,3.5223,3.5232,3.5219,3.5271,3.5276,3.528,3.5297,3.5303,3.5227,3.5227,3.5227,3.5227,0,3.4976,3.5004,3.5025,3.5056,3.5075,3.5104,3.5116,3.5134,3.5136,3.5146,3.5183,3.5201,3.5228,3.5239,3.524,3.5283,3.5277,3.527,3.5253,3.5288,3.5304,3.531,3.5229,3.5228,3.5228,3.5228,0,0,3.5019,3.5056,3.5063,3.5078,3.5106,3.5127,3.5157,3.5185,3.5201,3.5222,3.5248,3.5284,3.5278,3.5294,3.5297,3.5318,3.5355,3.5308,3.5308,3.5316,3.5404,3.541,3.5417,3.5353,3.5354,3.5355,3.5402,0,3.506,3.5114,3.5123,3.517,3.5196,3.5197,3.5223,3.5243,3.5253,3.5277,3.5288,3.5315,3.5304,3.5314,3.5334,3.5346,3.5373,3.5343,3.5377,3.5378,3.5371,3.5425,3.5431,3.5474,3.5409,3.541,3.541,0,3.5115,3.5139,3.519,3.5216,3.5227,3.5251,3.5278,3.5301,3.5324,3.533,3.5349,3.5351,3.5382,3.5365,3.5408,3.5388,3.5403,3.5411,3.5413,3.5416,3.5396,3.543,3.5488,3.5495,3.542,3.5419,3.5419,0,3.5142,3.5187,3.5224,3.5237,3.5267,3.5284,3.5298,3.532,3.5337,3.5361,3.5372,3.5399,3.5414,3.5435,3.5444,3.5431,3.5488,3.5471,3.5494,3.5494,3.5506,3.5505,3.5567,3.5515,3.5515,3.5515,3.5515,0,3.5187,3.5218,3.5237,3.5259,3.5294,3.5304,3.5338,3.5351,3.5371,3.5396,3.5398,3.5421,3.5432,3.5457,3.5465,3.5501,3.5507,3.5513,3.5515,3.5513,3.5512,3.5522,3.552,3.5516,3.5516,3.5516,3.5515,0,3.5223,3.5237,3.5277,3.5304,3.5311,3.5336,3.5359,3.538,3.5392,3.5424,3.5432,3.5449,3.5479,3.5491,3.5526,3.5532,3.5573,3.5572,3.5566,3.5566,3.5589,3.5587,3.566,3.5671,3.5611,3.5612,3.5612,0,3.525,3.5275,3.5305,3.5322,3.5337,3.5365,3.5383,3.5394,3.5413,3.5442,3.5461,3.5491,3.5516,3.5563,3.5579,3.5607,3.5607,3.5631,3.5611,3.5609,3.5608,3.5606,3.5609,3.5634,3.5635,3.5635,3.5636,0,3.5299,3.5305,3.5332,3.5362,3.5384,3.5407,3.543,3.5444,3.5459,3.548,3.5512,3.5531,3.5569,3.5599,3.5628,3.5642,3.5641,3.5642,3.5649,3.5647,3.5643,3.5647,3.5576,3.564,3.564,3.5639,3.5639,3.5639,3.5332,3.5354,3.5379,3.541,3.5428,3.545,3.5473,3.5488,3.5515,3.5547,3.5552,3.5586,3.561,3.5649,3.5664,3.5691,3.5684,3.5694,3.5697,3.5699,3.5701,3.5639,3.5696,3.5696,3.5696,3.5696,3.5696,0,3.5381,3.5398,3.5426,3.5459,3.5483,3.5482,3.5508,3.5527,3.5558,3.558,3.5605,3.5642,3.5672,3.5691,3.5721,3.5738,3.5739,3.5746,3.5745,3.5748,3.5705,3.5696,3.5745,3.5745,3.5745,3.5745,3.5745,3.5745,3.5409,3.5447,3.5457,3.5505,3.5521,3.5555,3.557,3.5591,3.5609,3.5651,3.5676,3.5689,3.571,3.5742,3.5769,3.5774,3.5785,3.5793,3.5797,3.5756,3.5751,3.5746,3.5738,3.5795,3.5795,3.5838,3.5839,3.5839]}]]